Hourly Data Report for October 06, 2015

All times are specified in Local Standard Time (LST). Add 1 hour to adjust for Daylight Saving Time where and when it is observed.

CAPE DORSET A
NUNAVUT

64°13'49.000" N
76°31'30.000" W
48.20 m
2400637
71366
YTE

Download Data

Hourly Data (October 2015)
Hourly Data Report for October 6, 2015
Temp Definition
°C
Dew Point Temp Definition
°C
Rel Hum Definition
%
Wind Dir Definition
10's deg

Wind Spd Definition
km/h
Visibility Definition
km
Stn Press Definition
kPa
Hmdx Definition


Wind Chill Definition


Weather Definition


TIME
00:00 Legend Double Dagger -3.2 -5.9 82 24 9 16.1 101.17   -7 LegendNANA
01:00 Legend Double Dagger -3.3 -6.1 81 18 9 16.1 101.14   -7 LegendNANA
02:00 Legend Double Dagger -3.2 -6.2 80 LegendMM 4 16.1 101.08   -5 LegendNANA
03:00 Legend Double Dagger -3.2 -6.1 81 15 9 16.1 101.05   -7 LegendNANA
04:00 Legend Double Dagger -3.7 -5.8 85 13 11 16.1 101.01   -8 LegendNANA
05:00 Legend Double Dagger -4.1 -5.2 92 15 9 16.1 100.98   -8 LegendNANA
06:00 Legend Double Dagger -3.9 -4.9 93 9 11 16.1 100.92   -8 LegendNANA
07:00 Legend Double Dagger -3.5 -4.8 91 9 15 16.1 100.85   -9 LegendNANA
08:00 Legend Double Dagger -3.3 -4.8 90 10 22 16.1 100.77   -10 LegendNANA
09:00 Legend Double Dagger -3.1 -4.9 88 9 18 16.1 100.74   -9 LegendNANA
10:00 Legend Double Dagger -2.7 -4.4 88 9 18 16.1 100.66   -8 LegendNANA
11:00 Legend Double Dagger -2.1 -3.4 91 8 24 16.1 100.55   -8 LegendNANA
12:00 Legend Double Dagger -1.8 -4.3 83 10 28 16.1 100.49   -9 LegendNANA
13:00 Legend Double Dagger -1.7 -4.2 83 10 24 16.1 100.44   -8 LegendNANA
14:00 Legend Double Dagger -1.0 -3.7 82 9 28 16.1 100.34   -8 LegendNANA
15:00 Legend Double Dagger -1.3 -3.7 84 10 32 16.1 100.26   -8 LegendNANA
16:00 Legend Double Dagger -1.7 -4.0 84 9 30 16.1 100.23   -9 LegendNANA
17:00 Legend Double Dagger -1.6 -3.7 86 9 32 16.1 100.16   -9 LegendNANA
18:00 Legend Double Dagger -1.5 -3.4 87 10 28 16.1 100.11   -8 LegendNANA
19:00 Legend Double Dagger -1.4 -3.5 86 8 35 16.1 100.03   -9 LegendNANA
20:00 Legend Double Dagger -1.5 -3.4 87 9 37 16.1 99.94   -9 LegendNANA
21:00 Legend Double Dagger -1.0 -3.0 87 9 39 16.1 99.86   -9 LegendNANA
22:00 Legend Double Dagger -1.6 -4.1 83 7 32 16.1 99.80   -9 Snow
23:00 Legend Double Dagger -1.9 -4.2 85 7 32 16.1 99.74   -9 Snow

Notes on Data Quality.

Legend

  • E = Estimated
  • M = Missing
  • NA = Not Available
  • ‡ = Partner data that is not subject to review by the National Climate Archives
Date modified: